Location: Newark
(50.8385°N, 4.3762°E)
Time: 09:40:10
(UTC+00:00)

ISS - Visible Passes

Search period start: 22 October 2019 00:00
Search period end: 01 November 2019 00:00
Orbit: 411 x 421 km, 51.6° (Epoch: 22 October)

Date Brightness Start Highest point End Pass type
(mag) Time Alt. Az. Time Alt. Az. Time Alt. Az.
23 Oct -0.5 05:38:30 10° SSE 05:39:50 12° SE 05:41:10 10° ESE visible
25 Oct -1.5 05:36:13 10° SSW 05:38:59 24° SE 05:41:47 10° E visible
26 Oct -1.0 04:48:20 10° S 04:50:34 17° SE 04:52:49 10° E visible
27 Oct -0.8 04:01:10 10° SSE 04:02:11 11° SE 04:03:13 10° ESE visible
27 Oct -2.7 05:35:03 10° SW 05:38:17 45° SSE 05:41:31 10° E visible
28 Oct -2.2 04:47:33 16° SSW 04:49:44 32° SSE 04:52:48 10° E visible
29 Oct -1.7 04:01:16 23° SE 04:01:16 23° SE 04:03:58 10° E visible
29 Oct -3.6 05:34:16 10° WSW 05:37:39 77° SSE 05:41:01 10° ENE visible
30 Oct -0.3 03:14:50 10° ESE 03:14:50 10° ESE 03:14:54 10° E visible
30 Oct -3.4 04:47:44 33° SW 04:49:01 59° SSE 04:52:21 10° ENE visible
31 Oct -2.3 04:01:14 35° ESE 04:01:14 35° ESE 04:03:38 10° E visible
31 Oct -3.8 05:34:08 13° W 05:37:03 80° N 05:40:26 10° E visible
